ONEWEB-0093 (45444 NORAD) Tracking and Keplerian Element Data

This shows tracking and keplerian element data for the satellite.

Feedback or suggestion? Click here.




ElementValue
Catalog45444
NameONEWEB-0093
Epoch Orbit159
Epoch Day93.91667824
Epoch Year2020
RAAN134.5955
Inclination87.4004
Eccentricity0.0024266
Argument of Perigee252.2164
Mean Anonmoly250.6929
Mean Motion15.35857501
Decay Rate0.00042484
L11 45444U 20020W 20093.91667824 .00042484 00000-0 12012-2 0 9992
L22 45444 87.4004 134.5955 0024266 252.2164 250.6929 15.35857501 1598

Live tracking and technical data element details for ONEWEB-0093 (NORAD 45444). ONEWEB-0093 can be tracked NOW for your location showing map with azimuth and elevation plus other details from your city location.

Track the satellite on the map from your city or location and see movement details for azimuth, elevation, latitude, longitude, range, height, and movement on the map or in text.







IsCatalogInMostPopularTable: catalog: 45444, numindb: 3
Update: records affected: 1



GetName: 45444 ONEWEB-0093

Hit Count: updated at: Mon, 06 Apr 2020 11:55:26 GMT